Weather History for San Jose, Costa Rica

Change the Weather History Date:

Tuesday, January 21, 2014

  Actual Average Record
Temperature  
Mean Temperature 71 °F -  
Max Temperature 77 °F 81 °F 84 °F (2002)
Min Temperature 65 °F 64 °F 59 °F (2004)
Cooling Degree Days 6    
Growing Degree Days 21 (Base 50)    
Moisture  
Dew Point 60 °F    
Average Humidity 64    
Maximum Humidity 73    
Minimum Humidity 47    
Precipitation  
Precipitation 0.00 in 0.01 in - ()
Sea Level Pressure  
Sea Level Pressure 29.97 in    
Wind  
Wind Speed 10 mph ()    
Max Wind Speed 16 mph    
Max Gust Speed 25 mph    
Visibility 7.9 miles    
Events Rain    
Averages and records for this station are not official NWS values.
T = Trace of Precipitation, MM = Missing Value Source: Averaged Metar Reports

Daily Weather History Graph

Daily Weather History Graph

Search for Another Location

Airport:

Trip Planner

Search our weather history database for the weather conditions in past years. The results will help you decide how hot, cold, wet, or windy it might be!

Date:

Astronomy

Jan. 21, 2014 Rise Set
Actual Time 5:59 AM CST 5:37 PM CST
Civil Twilight 5:36 AM CST 5:59 PM CST
Nautical Twilight 5:11 AM CST 6:25 PM CST
Astronomical Twilight 4:45 AM CST 6:50 PM CST
Moon 10:00 PM CST (1/21) 9:31 AM CST (1/21)
Length of Visible Light 12h 22m
Length of Day
11h 38m
Waning Gibbous, 74% of the Moon is Illuminated
Jan 21
Waning Gibbous
Jan 23
Last Quarter
Jan 30
New
Feb 6
First Quarter
Feb 14
Full

Hourly Weather History & Observations

Time (CST) Temp. Dew Point Humidity Pressure Visibility Wind Dir Wind Speed Gust Speed Precip Events Conditions
12:00 AM 69.8 °F 60.8 °F 73% 30.01 in - East 11.5 mph 23.0 mph N/A   Clear
1:00 AM 69.8 °F 59.0 °F 68% 29.98 in - East 11.5 mph - N/A   Clear
3:00 AM 69 °F 60 °F 65% 29.83 in 12 mi East 6.9 mph - -  
3:00 AM 68.0 °F 59.0 °F 73% 29.97 in - East 6.9 mph - N/A   Clear
4:00 AM 68.0 °F 59.0 °F 73% 29.98 in - ENE 4.6 mph - N/A   Clear
5:00 AM 68.0 °F 59.0 °F 73% 30.00 in - East 6.9 mph - N/A   Clear
6:00 AM 68 °F 59 °F 65% 29.87 in 12 mi NE 11.5 mph - -   Scattered Clouds
6:00 AM 68.0 °F 59.0 °F 73% 30.00 in 6.2 mi NE 11.5 mph - N/A   Partly Cloudy
7:00 AM 69.8 °F 59.0 °F 68% 30.01 in 6.2 mi NNE 9.2 mph - N/A   Partly Cloudy
8:00 AM 73.4 °F 60.8 °F 65% 30.03 in - ENE 16.1 mph - N/A   Clear
9:00 AM 77 °F 60 °F 47% 29.89 in 12 mi East 11.5 mph - -   Scattered Clouds
9:00 AM 77.0 °F 60.8 °F 57% 30.04 in 6.2 mi East 11.5 mph 23.0 mph N/A   Scattered Clouds
10:00 AM 75.2 °F 60.8 °F 61% 30.04 in 6.2 mi East 11.5 mph 23.0 mph N/A   Mostly Cloudy
11:00 AM 77.0 °F 59.0 °F 54% 30.03 in 6.2 mi East 10.4 mph 21.9 mph N/A   Mostly Cloudy
12:00 PM 76 °F 60 °F 48% 29.86 in 12 mi East 16.1 mph - -   Overcast
12:00 PM 75.2 °F 60.8 °F 61% 30.01 in 6.2 mi East 16.1 mph - N/A   Mostly Cloudy
1:00 PM 77.0 °F 60.8 °F 57% 29.99 in 6.2 mi East 16.1 mph - N/A   Mostly Cloudy
2:00 PM 75.2 °F 60.8 °F 61% 29.96 in 6.2 mi ESE 16.1 mph - N/A   Mostly Cloudy
3:00 PM 75 °F 60 °F 51% 29.80 in 12 mi East 10.4 mph - -   Overcast
3:00 PM 75.2 °F 60.8 °F 61% 29.95 in 6.2 mi East 10.4 mph - N/A   Mostly Cloudy
4:00 PM 73.4 °F 60.8 °F 65% 29.96 in 6.2 mi East 10.4 mph - N/A Rain Light Rain
5:00 PM 73.4 °F 60.8 °F 65% 29.96 in 6.2 mi ESE 11.5 mph - N/A   Mostly Cloudy
6:00 PM 71 °F 60 °F 59% 29.84 in 12 mi East 9.2 mph - -   Scattered Clouds
6:00 PM 71.6 °F 59.0 °F 64% 29.98 in 6.2 mi East 9.2 mph - N/A   Mostly Cloudy
7:00 PM 71.6 °F 60.8 °F 69% 29.99 in 6.2 mi East 11.5 mph - N/A   Mostly Cloudy
8:00 PM 71.6 °F 60.8 °F 69% 30.00 in 6.2 mi ESE 13.8 mph 25.3 mph N/A   Mostly Cloudy
9:00 PM 71 °F 60 °F 60% 29.88 in 12 mi ESE 11.5 mph - -   Scattered Clouds
9:00 PM 71.6 °F 60.8 °F 69% 30.02 in 6.2 mi ESE 11.5 mph - N/A   Mostly Cloudy
10:00 PM 69.8 °F 60.8 °F 73% 30.04 in 6.2 mi ENE 8.1 mph - N/A   Mostly Cloudy
11:00 PM 69.8 °F 60.8 °F 73% 30.03 in 6.2 mi East 8.1 mph - N/A   Mostly Cloudy